Year,Month,Day,Hour,Minute,Value (Times are PST for temperature in C)
2017,08,19,00,26,14.80
2017,08,19,00,27,14.80
2017,08,19,00,28,14.70
2017,08,19,00,29,14.70
2017,08,19,01,26,14.20
2017,08,19,01,27,14.20
2017,08,19,01,28,14.20
2017,08,19,01,29,14.20
2017,08,19,02,26,13.70
2017,08,19,02,27,13.70
2017,08,19,02,28,13.70
2017,08,19,02,29,13.70
2017,08,19,03,26,13.50
2017,08,19,03,27,13.50
2017,08,19,03,28,13.50
2017,08,19,03,29,13.50
2017,08,19,04,26,13.80
2017,08,19,04,27,13.80
2017,08,19,04,28,13.80
2017,08,19,04,29,13.80
2017,08,19,05,26,13.70
2017,08,19,05,27,13.70
2017,08,19,05,28,13.70
2017,08,19,05,29,13.70
2017,08,19,06,26,13.50
2017,08,19,06,27,13.50
2017,08,19,06,28,13.50
2017,08,19,06,29,13.50
2017,08,19,07,26,13.40
2017,08,19,07,27,13.40
2017,08,19,07,28,13.40
2017,08,19,07,29,13.40
2017,08,19,08,26,16.10
2017,08,19,08,27,16.10
2017,08,19,08,28,16.20
2017,08,19,08,29,16.30
2017,08,19,09,26,18.90
2017,08,19,09,27,18.90
2017,08,19,09,28,18.90
2017,08,19,09,29,18.90
2017,08,19,10,26,19.50
2017,08,19,10,27,19.50
2017,08,19,10,28,19.50
2017,08,19,10,29,19.50
2017,08,19,11,26,19.10
2017,08,19,11,27,19.10
2017,08,19,11,28,19.10
2017,08,19,11,29,19.20
2017,08,19,12,26,21.20
2017,08,19,12,27,21.20
2017,08,19,12,28,21.30
2017,08,19,12,29,21.30
2017,08,19,13,26,21.10
2017,08,19,13,27,21.20
2017,08,19,13,28,21.20
2017,08,19,13,29,21.20
2017,08,19,14,26,21.20
2017,08,19,14,27,21.10
2017,08,19,14,28,21.10
2017,08,19,14,29,21.10
2017,08,19,15,26,19.90
2017,08,19,15,27,19.90
2017,08,19,15,28,19.90
2017,08,19,15,29,19.80
2017,08,19,16,26,19.20
2017,08,19,16,27,19.20
2017,08,19,16,28,19.20
2017,08,19,16,29,19.10
2017,08,19,17,26,17.30
2017,08,19,17,27,17.30
2017,08,19,17,28,17.30
2017,08,19,17,29,17.30
2017,08,19,18,26,15.80
2017,08,19,18,27,15.80
2017,08,19,18,28,15.80
2017,08,19,18,29,15.80
2017,08,19,19,26,15.50
2017,08,19,19,27,15.60
2017,08,19,19,28,15.60
2017,08,19,19,29,15.70
2017,08,19,20,26,15.20
2017,08,19,20,27,15.20
2017,08,19,20,28,15.20
2017,08,19,20,29,15.30
2017,08,19,21,26,15.00
2017,08,19,21,27,15.00
2017,08,19,21,28,15.00
2017,08,19,21,29,15.00
2017,08,19,22,26,14.60
2017,08,19,22,27,14.60
2017,08,19,22,28,14.60
2017,08,19,22,29,14.60
2017,08,19,23,26,14.30
2017,08,19,23,27,14.30
2017,08,19,23,28,14.30
2017,08,19,23,29,14.30
